Temperature
18 18 19 20 19 19 20 22 25 26 26 26 26 25 25 26 24 21 21 21 20 22 22 20 19 18 17 16 16 16 16 16 15 14 14 13 13 13 13 13 13 13 13 13 13 13 13 13 13
18 18 19 20 19 19 21 23 25 26 26 25 25 25 25 26 23 22 21 20 20 21 21 20 19 18 16 16 16 16 16 15 14 14 13 13 13 13 13 13 13 14 14 14 14 13 13 14 14
18 18 19 19 19 19 21 25 26 26 25 25 25 25 26 26 24 22 21 20 19 20 20 20 19 18 16 16 16 16 16 15 14 14 13 13 13 13 13 13 14 14 14 14 14 14 14 14 14
17 18 19 19 19 21 22 24 25 25 25 25 25 26 26 23 23 22 21 20 19 18 19 20 19 17 16 16 16 16 16 15 14 14 13 13 13 13 13 13 14 14 14 14 14 14 14 14 14
16 18 18 18 19 22 23 25 25 24 24 25 25 25 24 23 22 21 20 20 19 18 19 19 18 18 17 16 16 16 16 15 14 14 14 13 13 13 13 13 14 14 14 14 14 14 14 13 13
17 19 18 18 20 22 23 25 25 24 24 25 25 24 23 22 21 20 20 20 19 18 18 19 18 18 17 17 16 16 16 16 15 14 14 14 13 13 13 13 14 14 14 14 14 13 13 13 13
18 17 18 19 20 22 24 25 25 23 23 25 25 24 23 21 21 20 19 20 19 18 18 18 18 17 17 17 17 16 16 16 15 15 14 14 14 13 14 14 14 14 14 13 13 13 13 13 13
17 18 18 19 20 21 24 25 24 24 23 24 24 24 22 20 20 20 19 19 19 18 17 18 18 17 17 17 17 17 17 16 16 15 15 14 14 14 14 14 14 14 14 13 13 13 13 13 13
17 16 17 18 20 21 24 24 24 23 23 23 23 22 20 20 20 20 19 19 18 17 17 17 17 17 17 16 16 17 17 17 16 16 15 14 14 14 14 14 14 14 13 13 13 13 13 13 13
16 15 17 20 21 21 23 23 23 22 21 22 22 22 21 20 19 19 19 18 18 17 17 16 16 16 16 16 16 16 16 16 16 16 15 14 13 13 13 14 14 13 13 13 13 12 12 12 12
17 16 18 20 21 21 21 21 21 21 20 22 22 22 21 20 20 19 19 19 18 18 17 17 16 16 15 15 15 15 16 16 16 15 15 14 13 13 13 13 13 13 13 13 12 12 12 12 12
17 18 18 19 19 19 19 19 19 20 20 21 21 21 21 20 20 20 20 20 20 19 18 17 16 16 15 15 15 15 15 15 15 14 14 14 13 13 13 13 13 12 12 12 12 12 12 12 12
16 17 18 18 18 17 17 17 17 18 19 19 20 20 20 20 20 20 20 20 20 20 19 18 17 16 15 15 15 14 14 14 14 14 13 14 14 13 13 12 12 12 12 12 12 12 12 12 12
17 17 17 17 17 17 16 16 16 17 17 18 18 19 19 19 19 19 20 20 20 20 19 18 17 17 16 15 15 15 14 14 14 14 14 13 13 13 13 13 12 12 12 12 12 12 12 12 12
15 14 15 16 16 16 16 15 16 17 17 17 18 18 18 19 19 19 19 20 20 20 20 19 18 17 16 16 16 15 15 14 14 14 14 13 13 13 13 13 12 12 12 12 12 12 12 12 12
14 13 13 16 16 16 15 14 16 18 18 17 18 18 18 18 19 19 19 19 20 20 20 19 19 18 17 17 16 15 15 14 14 14 14 13 13 13 13 13 12 12 12 12 12 12 12 12 11
13 13 14 16 17 17 15 14 16 18 19 18 18 18 18 18 19 19 19 19 20 20 20 20 19 18 17 17 17 16 15 15 14 14 14 13 13 13 13 13 12 12 12 12 12 12 11 11 11
13 13 14 15 17 16 15 14 16 17 17 17 18 18 18 18 18 19 19 19 19 20 20 20 19 19 18 17 16 16 15 15 14 14 13 13 13 13 13 13 12 12 12 12 12 11 11 11 11
13 13 13 14 16 14 13 14 15 16 16 16 17 17 17 17 18 18 18 18 18 19 19 19 19 19 18 17 16 16 15 15 14 14 13 13 13 13 13 13 12 12 12 12 11 11 11 11 10
12 12 12 13 14 14 12 13 14 15 15 16 16 17 17 17 17 17 17 18 18 18 18 19 19 19 18 17 17 17 16 15 14 14 13 13 13 13 13 12 12 12 12 11 11 11 10 10 10
11 11 11 11 12 12 12 12 14 16 16 16 17 17 17 17 17 17 17 17 17 17 17 18 18 18 18 17 16 15 14 14 14 13 13 13 13 13 13 12 12 12 11 11 11 10 10 10 9
10 12 11 11 10 9 11 9 13 15 16 16 17 17 17 17 17 17 17 17 17 17 17 17 17 18 18 17 16 16 15 14 14 14 13 13 13 13 12 12 11 11 11 11 10 10 10 9 9
11 11 10 10 9 8 9 8 11 14 15 16 16 18 17 17 17 17 17 17 17 17 17 17 17 17 17 17 16 16 15 15 14 14 13 13 12 12 12 11 11 11 11 10 10 10 9 9 8
11 10 9 9 8 7 9 9 11 14 16 17 17 18 18 17 17 17 17 17 16 16 17 17 17 17 17 16 15 15 15 14 14 14 12 12 12 12 11 11 11 10 10 10 10 9 9 8 8
10 8 7 8 7 7 11 11 12 15 17 17 17 17 17 17 16 16 16 16 15 15 16 16 16 16 16 15 14 14 13 13 14 14 12 12 12 11 11 11 10 10 10 9 9 9 8 8 7
9 8 7 8 9 10 12 12 13 16 17 17 17 17 16 16 15 15 15 15 14 15 15 15 15 15 15 14 13 12 11 12 13 13 12 11 12 11 11 10 10 9 9 9 9 8 8 7 6
8 8 9 8 7 7 9 11 14 15 15 15 16 16 16 15 15 14 14 14 14 14 14 14 14 14 13 13 12 11 11 11 12 11 11 11 11 11 10 10 9 9 8 8 8 7 7 6 6
10 9 8 6 5 6 9 11 12 14 14 15 14 14 15 15 14 14 13 13 13 13 13 14 13 13 12 12 11 10 10 10 11 10 10 10 11 10 10 9 9 8 8 7 7 7 6 5 5
8 8 8 7 7 6 7 10 15 13 13 13 13 14 14 14 13 13 12 12 12 12 12 13 13 12 12 11 10 10 10 10 10 10 10 10 10 10 9 9 8 8 7 7 6 6 5 4 4
9 8 7 6 6 7 7 9 14 13 13 12 12 13 13 12 12 12 11 11 11 11 12 12 12 11 11 10 10 10 9 9 9 9 9 9 9 9 8 8 7 7 7 6 5 5 4 3 3
Wind_Speed
16 17 10 3 4 6 11 12 9 0 3 6 8 6 9 9 6 6 5 9 17 18 20 21 20 18 17 16 14 13 11 10 12 14 15 14 14 13 13 12 12 12 13 13 14 15 15 14 12
12 13 6 4 5 8 12 14 8 3 4 7 6 4 8 6 8 9 7 12 17 18 19 19 21 19 17 16 14 12 11 11 13 15 15 14 13 13 13 13 13 13 13 13 14 14 13 12 11
9 13 5 4 7 11 12 6 2 6 6 1 5 7 8 2 9 8 9 12 16 17 18 21 22 20 18 16 14 12 12 12 14 15 14 14 13 12 13 13 13 13 13 13 12 12 11 9 8
6 6 5 7 13 13 14 12 4 5 3 5 6 5 3 8 5 9 11 10 14 16 19 23 22 20 18 16 14 13 12 13 14 14 13 12 11 11 11 12 12 11 11 10 10 9 8 6 5
5 4 9 11 15 15 14 10 5 1 4 6 6 8 4 7 12 14 10 10 13 15 19 22 22 21 19 17 15 13 13 13 13 13 12 11 9 9 10 12 11 10 9 8 7 7 6 4 4
5 5 8 13 15 15 15 13 4 5 9 7 3 8 4 8 11 11 9 8 11 16 17 20 22 21 20 18 15 14 13 13 12 12 11 10 8 7 9 12 11 9 7 6 5 5 5 5 5
7 7 12 14 13 13 13 11 7 7 9 9 4 6 5 9 10 10 9 8 11 16 16 15 18 19 20 20 17 15 14 13 11 11 11 10 8 7 12 13 11 8 6 5 6 7 7 6 6
6 6 12 14 15 13 11 7 6 5 8 6 1 3 5 6 7 9 9 7 10 12 15 13 15 16 16 17 18 17 15 13 12 11 12 11 9 11 15 14 11 9 8 9 8 8 7 6 5
6 7 12 12 12 11 11 7 4 3 5 9 2 3 7 5 6 8 8 6 8 9 12 14 13 13 15 16 17 17 16 14 13 12 13 11 10 12 13 14 13 11 10 9 8 6 5 5 3
6 8 13 11 11 10 9 7 3 5 8 10 7 5 9 7 7 8 8 8 9 9 10 12 14 13 13 14 15 14 13 13 13 13 13 11 11 12 14 15 13 12 11 10 7 5 4 3 2
8 8 10 13 13 9 8 7 3 6 7 9 9 9 10 9 8 8 9 10 11 11 9 10 12 13 10 8 12 10 11 13 14 15 16 14 9 13 13 11 11 11 11 8 6 5 2 5 4
11 10 10 11 8 7 7 8 9 8 9 10 9 5 3 7 8 8 8 8 10 13 12 10 10 11 11 8 8 7 7 8 8 12 17 11 6 6 8 8 10 10 8 6 4 3 6 6 7
14 13 11 9 7 7 8 9 11 13 12 12 12 11 8 7 6 7 8 8 8 10 14 12 11 11 10 10 8 7 6 7 9 10 13 12 5 5 4 5 7 8 8 5 3 5 6 6 6
5 7 11 10 7 7 10 12 13 12 13 14 14 13 12 11 10 10 10 9 9 9 12 13 13 12 11 10 9 8 6 8 9 9 11 13 10 5 4 5 5 6 6 6 5 6 4 4 4
7 8 9 10 10 8 9 14 17 18 17 17 16 14 14 13 12 13 13 11 10 9 11 13 14 14 14 12 11 9 7 9 7 9 13 13 12 10 7 6 5 5 8 7 7 6 5 3 2
5 6 7 9 15 13 10 12 11 13 17 19 17 15 14 14 14 14 14 13 11 9 10 13 14 15 15 13 11 8 7 8 7 11 13 13 14 14 9 6 5 8 9 6 4 3 3 4 4
6 6 9 9 9 7 10 10 10 10 8 9 10 11 12 12 13 14 14 13 12 11 10 11 13 15 15 14 11 9 8 9 8 10 10 12 15 16 11 6 6 10 6 4 4 5 4 4 3
4 7 8 7 4 5 10 12 11 12 13 11 11 11 11 11 11 11 11 11 11 11 11 11 13 15 13 13 10 8 9 9 8 8 9 13 14 16 12 7 7 9 6 5 5 5 4 3 3
8 9 9 9 10 8 11 15 14 14 15 16 15 14 13 13 12 11 11 10 10 10 11 11 12 14 12 11 12 11 10 8 8 8 11 13 14 15 11 7 8 7 7 6 7 5 5 3 3
7 9 10 10 9 10 13 21 18 20 21 20 18 16 15 14 14 13 13 12 12 12 12 11 11 13 14 12 11 9 7 5 5 6 9 12 14 14 11 9 8 8 7 7 7 5 4 2 4
7 8 8 10 13 10 12 14 13 14 18 17 16 16 14 15 15 13 13 13 13 14 13 12 12 11 13 13 10 8 6 5 4 6 6 8 12 12 11 10 9 9 7 7 7 5 5 4 2
6 4 6 7 6 5 7 9 8 9 9 9 11 12 12 12 12 12 12 13 13 13 13 13 12 11 12 16 16 16 12 8 6 6 7 9 9 10 13 12 10 9 8 8 7 6 4 4 3
2 5 4 6 7 7 6 8 11 9 11 11 11 11 11 10 11 10 10 10 10 9 10 12 12 11 12 15 17 17 11 8 9 10 12 9 8 9 11 13 10 10 8 8 8 6 5 3 3
2 1 6 6 4 7 8 10 10 4 5 3 2 4 6 8 7 6 6 6 7 7 7 8 11 10 11 14 15 15 15 15 16 15 14 11 9 9 10 11 10 9 8 8 8 7 6 5 4
4 2 3 3 5 8 10 9 10 7 5 5 4 4 5 5 3 4 5 5 5 6 7 7 10 10 12 14 14 13 14 17 18 17 15 15 12 10 10 12 10 10 8 7 6 6 6 5 4
8 5 3 4 5 4 4 9 8 7 7 7 6 5 6 6 4 4 5 5 5 7 7 7 8 9 11 13 13 12 13 13 13 13 14 14 12 10 11 12 12 10 9 8 6 6 5 5 3
7 6 4 4 6 7 7 8 10 11 11 8 7 6 7 6 5 4 4 5 6 7 7 8 9 9 11 12 12 12 14 14 14 13 13 11 12 13 13 14 13 10 8 7 7 5 5 4 3
5 4 4 3 4 7 9 9 6 6 9 8 5 5 6 5 5 3 3 4 5 6 5 7 9 9 10 12 12 11 13 14 15 14 13 13 14 14 15 14 13 11 9 8 6 6 5 3 2
9 5 5 4 5 5 7 6 4 9 10 10 10 8 5 3 3 1 2 4 6 7 5 4 8 10 11 12 12 13 13 14 15 13 13 13 14 16 15 15 13 10 9 7 6 5 5 2 1
10 9 9 5 6 6 6 9 5 6 7 10 12 10 7 5 4 2 0 2 5 6 4 3 7 11 12 13 14 13 13 14 14 14 13 13 15 14 14 13 12 10 8 7 6 5 4 2 2
Wind_Direction
298 282 268 259 251 237 249 257 255 270 355 3 14 353 321 327 39 94 186 125 123 132 139 143 140 137 133 127 122 117 116 120 126 126 119 112 105 98 90 83 78 77 76 74 71 71 71 72 71
289 287 285 246 242 248 249 243 235 205 76 33 350 288 278 283 102 113 125 115 128 131 140 143 140 138 134 129 124 121 120 124 127 125 119 114 109 102 93 87 84 83 81 80 77 74 72 71 70
270 272 266 236 229 244 266 292 98 101 66 244 249 227 237 0 91 115 121 127 131 133 142 139 142 140 136 132 128 125 124 125 127 125 121 118 114 108 101 95 92 89 85 83 80 76 73 71 68
257 238 237 241 245 240 255 281 80 92 181 224 262 254 163 63 64 103 120 141 135 135 134 141 143 142 139 136 133 131 131 129 128 126 125 121 116 111 109 107 103 96 89 83 78 74 72 69 63
238 250 230 234 242 252 266 274 106 168 252 220 219 268 97 83 93 111 141 154 140 134 133 146 145 146 143 141 140 140 140 138 136 133 129 123 116 113 119 121 114 105 95 82 70 63 62 59 52
213 225 231 234 240 240 246 259 188 196 261 250 216 264 105 121 112 130 145 155 140 130 136 148 150 150 148 147 147 149 149 147 145 142 135 124 116 111 130 132 124 115 103 84 65 59 66 66 61
232 231 241 246 249 245 239 229 191 201 245 254 223 255 118 103 112 131 146 161 134 131 139 149 155 155 154 152 153 156 155 155 153 148 134 120 113 120 135 136 130 123 109 91 80 82 83 79 70
246 255 247 247 255 259 265 240 175 204 255 275 335 308 68 97 130 136 142 141 130 134 143 154 160 162 161 159 159 160 160 160 158 147 134 129 127 128 134 134 131 123 110 99 93 95 99 100 92
255 245 243 241 248 260 270 268 166 165 284 293 242 105 99 101 125 123 124 124 133 146 151 160 164 166 166 165 165 161 162 163 159 150 149 154 162 151 140 134 131 127 121 116 116 124 134 131 123
217 239 240 254 268 277 277 274 195 191 211 255 261 136 128 146 156 156 160 166 160 170 170 166 168 168 168 168 163 167 168 168 173 170 172 193 199 160 140 140 139 138 135 132 140 153 178 173 118
211 234 254 262 276 299 319 322 297 262 237 230 227 195 164 165 176 192 192 183 175 179 182 173 168 167 167 160 165 172 173 172 192 184 180 200 168 129 137 142 144 147 149 152 163 180 121 81 66
244 245 245 264 300 335 318 312 302 276 266 283 299 313 181 179 193 205 215 215 183 177 179 177 168 165 168 164 170 171 173 173 192 184 179 184 151 157 164 160 163 162 156 147 153 127 94 66 54
236 255 270 278 305 314 308 291 292 285 286 287 292 294 288 266 252 250 236 223 210 185 174 177 173 168 170 170 175 176 175 173 181 173 174 168 153 170 148 127 132 130 133 139 111 79 75 62 48
271 269 266 269 264 266 266 264 260 261 266 268 268 268 268 263 254 258 255 235 221 203 177 175 177 174 174 177 179 182 178 172 173 168 178 170 165 157 124 113 115 118 119 108 97 84 76 69 61
319 303 288 268 251 239 254 255 244 246 247 251 252 249 247 245 246 245 246 238 220 211 186 175 179 179 178 182 184 186 180 173 170 168 182 175 159 139 125 122 124 128 121 103 85 81 74 71 33
237 252 253 245 221 219 221 256 257 249 232 234 240 244 245 240 234 235 239 239 229 219 198 182 181 181 181 183 187 186 184 174 172 169 178 173 152 140 131 131 134 129 114 101 89 76 75 65 34
211 238 245 254 183 190 216 255 261 274 272 245 241 245 246 243 235 231 232 232 227 220 211 190 177 179 181 181 183 189 188 179 173 170 172 168 152 143 137 133 133 127 113 103 99 64 63 59 21
207 228 246 252 179 206 246 261 269 281 283 269 253 249 250 248 242 236 235 235 230 223 217 199 177 178 178 177 178 187 191 182 172 168 166 157 148 143 134 135 135 124 116 115 111 107 76 54 356
305 312 304 304 331 325 282 276 270 265 260 255 249 245 245 248 250 245 238 239 242 236 226 213 189 181 178 177 179 186 191 182 170 164 153 146 143 139 139 138 132 129 132 136 130 122 100 47 357
272 282 286 296 311 309 289 280 271 257 250 245 244 242 241 243 244 243 238 229 228 233 231 222 207 186 182 179 178 181 171 156 140 134 134 136 137 140 143 138 135 130 126 116 112 115 115 74 32
252 262 279 294 316 296 284 284 259 251 235 231 233 237 240 243 244 244 241 234 227 224 226 225 217 199 182 168 159 145 114 96 105 118 123 125 133 138 139 134 129 127 124 125 122 124 127 136 71
249 262 277 293 302 296 320 298 273 276 280 238 219 218 227 238 243 243 242 241 233 225 219 219 216 207 182 166 164 164 169 163 162 141 127 125 129 137 137 133 130 126 123 125 124 115 115 123 133
229 28 336 306 298 293 251 256 275 227 246 241 227 214 217 228 237 242 240 237 239 232 219 212 207 200 177 168 166 169 170 148 135 132 134 134 138 139 137 133 131 129 129 127 122 122 111 103 117
211 310 273 252 267 267 224 222 277 245 261 302 272 219 226 236 245 260 267 257 248 241 234 214 197 186 167 163 164 167 167 156 151 151 151 148 146 140 134 131 129 126 127 127 126 123 116 103 95
188 197 261 218 221 247 234 229 254 263 300 304 291 287 294 293 299 298 301 301 287 259 236 215 190 177 164 161 164 168 167 160 159 159 157 154 154 150 143 137 132 128 127 127 124 126 127 119 118
188 199 229 267 272 297 271 248 259 256 253 247 226 232 258 275 291 306 311 306 292 270 239 206 190 175 165 163 165 168 160 155 157 158 158 158 156 149 141 135 130 128 130 132 126 126 131 125 136
176 213 274 319 302 281 256 266 286 263 261 253 232 225 236 247 259 279 303 308 302 281 243 199 185 174 165 161 160 161 151 149 151 150 149 149 146 144 137 133 131 131 132 132 137 138 137 139 156
240 189 188 200 266 278 271 255 255 333 354 345 307 260 247 243 246 254 301 318 315 302 263 193 179 170 160 156 153 149 142 141 142 144 147 147 145 142 138 134 132 131 129 130 126 123 121 125 149
203 214 208 230 251 269 286 263 314 341 338 332 324 310 298 296 296 312 337 335 327 313 285 195 173 156 148 141 133 131 131 133 137 139 140 141 140 139 136 134 132 130 130 128 126 131 134 150 221
199 203 196 214 239 232 268 274 287 305 338 336 320 306 307 298 287 281 334 332 313 304 290 190 154 139 132 126 124 124 125 128 131 132 132 135 134 132 130 129 126 126 123 122 127 132 137 187 247
Height
1505 1506 1507 1509 1509 1509 1504 1490 1477 1476 1478 1479 1480 1481 1482 1482 1486 1496 1495 1494 1494 1494 1496 1499 1501 1503 1505 1507 1509 1510 1512 1513 1514 1517 1518 1519 1520 1520 1521 1521 1521 1521 1523 1524 1526 1527 1528 1529 1530
1504 1506 1508 1506 1508 1511 1499 1482 1477 1477 1479 1482 1484 1485 1485 1483 1485 1489 1492 1494 1494 1494 1497 1499 1502 1504 1506 1508 1509 1511 1512 1513 1515 1517 1518 1519 1520 1521 1521 1521 1522 1522 1523 1525 1527 1528 1530 1531 1531
1503 1505 1506 1502 1503 1504 1493 1474 1472 1475 1480 1485 1486 1485 1484 1484 1486 1488 1491 1493 1494 1495 1497 1499 1502 1504 1506 1508 1510 1511 1512 1514 1515 1517 1519 1520 1521 1522 1522 1523 1523 1524 1525 1526 1527 1529 1531 1531 1532
1502 1504 1503 1501 1497 1489 1483 1476 1474 1477 1482 1484 1485 1483 1483 1485 1486 1488 1491 1494 1495 1495 1496 1500 1502 1505 1507 1508 1510 1511 1513 1514 1516 1517 1519 1520 1522 1523 1523 1524 1525 1525 1526 1527 1529 1530 1531 1532 1533
1501 1501 1500 1498 1492 1484 1478 1474 1475 1480 1482 1483 1483 1482 1482 1484 1486 1488 1491 1494 1496 1496 1496 1500 1502 1505 1506 1508 1510 1512 1513 1515 1516 1518 1519 1521 1522 1523 1524 1525 1526 1527 1528 1529 1530 1531 1532 1533 1533
1499 1496 1498 1495 1487 1480 1477 1474 1474 1479 1482 1482 1482 1483 1484 1484 1486 1489 1492 1495 1497 1496 1496 1500 1502 1504 1506 1508 1510 1511 1513 1515 1516 1518 1519 1521 1522 1524 1525 1526 1527 1528 1529 1530 1531 1532 1533 1533 1534
1495 1493 1491 1487 1482 1477 1471 1471 1473 1478 1481 1481 1481 1482 1484 1485 1487 1490 1492 1495 1497 1496 1496 1499 1501 1503 1506 1507 1509 1511 1513 1514 1516 1517 1519 1521 1523 1524 1525 1526 1527 1529 1530 1531 1532 1533 1533 1534 1534
1490 1488 1486 1484 1481 1476 1469 1468 1470 1476 1479 1481 1481 1482 1485 1487 1487 1490 1492 1495 1496 1496 1496 1498 1500 1502 1504 1506 1508 1510 1512 1513 1515 1517 1519 1521 1523 1524 1525 1526 1528 1529 1530 1531 1532 1533 1533 1534 1534
1488 1489 1485 1480 1478 1474 1469 1468 1470 1474 1479 1480 1481 1483 1485 1487 1488 1489 1491 1494 1495 1496 1496 1497 1499 1501 1503 1505 1507 1509 1511 1512 1514 1516 1518 1521 1523 1524 1525 1526 1527 1529 1530 1531 1532 1532 1533 1533 1533
1485 1486 1480 1475 1472 1470 1468 1468 1469 1474 1478 1480 1481 1481 1483 1486 1487 1488 1490 1492 1493 1495 1497 1497 1498 1500 1502 1504 1506 1507 1509 1511 1513 1515 1517 1520 1522 1523 1524 1526 1527 1528 1529 1530 1531 1531 1532 1532 1532
1480 1479 1476 1473 1472 1470 1469 1470 1471 1473 1476 1478 1479 1480 1481 1483 1485 1487 1488 1489 1490 1492 1495 1497 1498 1499 1501 1502 1504 1506 1507 1509 1511 1513 1516 1518 1521 1522 1524 1525 1526 1527 1528 1529 1530 1530 1530 1531 1531
1476 1473 1473 1472 1472 1472 1472 1472 1473 1473 1476 1476 1476 1478 1479 1480 1482 1484 1486 1488 1489 1489 1491 1494 1496 1497 1499 1501 1502 1504 1506 1507 1510 1512 1514 1517 1519 1521 1523 1524 1525 1526 1527 1528 1529 1529 1529 1529 1529
1474 1473 1472 1471 1472 1473 1474 1475 1476 1474 1475 1475 1474 1474 1475 1477 1479 1481 1483 1485 1487 1488 1488 1490 1493 1495 1497 1499 1500 1502 1504 1506 1508 1511 1513 1515 1517 1519 1521 1522 1524 1525 1526 1527 1527 1527 1527 1527 1527
1471 1471 1472 1471 1471 1474 1475 1475 1476 1473 1474 1473 1472 1471 1472 1473 1476 1478 1480 1481 1483 1485 1485 1486 1489 1491 1493 1495 1497 1499 1502 1504 1506 1508 1511 1513 1515 1518 1519 1521 1522 1524 1525 1525 1526 1526 1525 1525 1524
1474 1475 1473 1470 1470 1472 1474 1472 1470 1469 1469 1469 1468 1468 1468 1469 1471 1473 1475 1477 1479 1481 1482 1483 1485 1487 1489 1491 1493 1496 1498 1501 1503 1505 1508 1511 1513 1515 1517 1519 1521 1522 1523 1524 1524 1524 1523 1523 1522
1476 1477 1476 1465 1463 1466 1474 1470 1463 1460 1460 1461 1461 1462 1463 1463 1464 1466 1469 1471 1473 1475 1477 1478 1480 1482 1484 1486 1489 1491 1494 1497 1499 1501 1504 1508 1510 1512 1514 1516 1518 1520 1521 1521 1522 1522 1521 1521 1520
1476 1476 1471 1462 1457 1460 1465 1464 1459 1456 1454 1454 1455 1456 1456 1457 1457 1459 1461 1464 1466 1469 1471 1473 1474 1476 1479 1481 1484 1487 1490 1493 1495 1498 1500 1503 1506 1508 1511 1513 1515 1517 1518 1519 1520 1520 1519 1519 1518
1471 1470 1466 1462 1455 1459 1461 1459 1456 1454 1453 1451 1450 1450 1450 1450 1451 1452 1454 1456 1459 1461 1464 1467 1468 1470 1473 1476 1478 1481 1485 1488 1491 1494 1497 1499 1502 1505 1507 1510 1512 1514 1515 1517 1517 1518 1518 1517 1516
1467 1469 1469 1463 1457 1460 1460 1456 1452 1450 1448 1445 1444 1444 1444 1444 1445 1446 1447 1449 1450 1453 1456 1459 1461 1462 1466 1469 1471 1474 1478 1482 1486 1489 1492 1495 1498 1501 1504 1507 1509 1511 1512 1514 1515 1515 1516 1515 1515
1469 1473 1472 1468 1462 1462 1459 1451 1446 1440 1436 1435 1435 1435 1436 1437 1438 1439 1441 1442 1443 1445 1447 1451 1454 1455 1458 1460 1464 1468 1472 1477 1481 1484 1487 1490 1493 1497 1500 1503 1505 1507 1509 1511 1512 1513 1513 1513 1513
1472 1475 1474 1472 1468 1464 1462 1447 1433 1422 1421 1423 1425 1427 1428 1429 1430 1431 1433 1435 1436 1438 1440 1443 1446 1449 1451 1454 1458 1462 1467 1470 1474 1477 1480 1484 1488 1492 1496 1499 1502 1504 1506 1508 1509 1510 1511 1510 1510
1473 1470 1471 1472 1475 1472 1466 1462 1433 1424 1419 1417 1417 1418 1420 1422 1423 1425 1426 1427 1429 1431 1434 1436 1440 1443 1446 1447 1449 1453 1457 1460 1464 1468 1472 1477 1483 1488 1492 1495 1498 1500 1503 1505 1507 1507 1508 1508 1507
1471 1471 1474 1474 1476 1478 1469 1470 1433 1421 1418 1413 1411 1412 1414 1416 1418 1419 1419 1420 1422 1424 1426 1429 1433 1436 1438 1439 1441 1446 1451 1454 1458 1462 1467 1473 1478 1483 1487 1491 1494 1497 1499 1502 1503 1504 1505 1505 1504
1470 1474 1475 1475 1478 1481 1463 1460 1435 1419 1410 1407 1406 1407 1410 1412 1413 1414 1414 1415 1416 1417 1419 1421 1424 1428 1431 1433 1435 1439 1444 1446 1450 1455 1460 1466 1472 1477 1482 1486 1490 1493 1496 1498 1500 1501 1502 1502 1501
1472 1479 1481 1478 1478 1471 1450 1444 1428 1411 1405 1405 1406 1407 1408 1409 1410 1410 1411 1411 1411 1412 1413 1415 1417 1420 1423 1427 1430 1435 1438 1440 1444 1448 1453 1459 1465 1470 1476 1481 1485 1489 1492 1495 1496 1498 1498 1498 1498
1472 1476 1481 1477 1465 1450 1437 1434 1416 1403 1401 1400 1402 1403 1405 1406 1407 1407 1408 1408 1408 1408 1408 1409 1411 1414 1418 1421 1426 1431 1434 1436 1439 1444 1449 1455 1460 1466 1471 1476 1481 1485 1489 1491 1493 1494 1494 1494 1494
1471 1475 1472 1475 1471 1469 1449 1428 1413 1401 1398 1398 1398 1399 1401 1402 1403 1404 1405 1405 1404 1404 1404 1405 1407 1410 1413 1417 1422 1427 1430 1432 1435 1440 1446 1451 1456 1461 1467 1472 1478 1482 1485 1488 1489 1490 1490 1490 1490
1466 1468 1474 1480 1484 1470 1444 1428 1416 1402 1401 1398 1398 1397 1398 1399 1400 1400 1401 1401 1401 1400 1400 1400 1402 1405 1409 1414 1418 1422 1426 1429 1433 1437 1442 1447 1452 1458 1463 1469 1475 1479 1482 1484 1486 1486 1487 1487 1486
1469 1470 1470 1471 1468 1469 1454 1429 1402 1402 1401 1401 1399 1397 1396 1396 1396 1396 1397 1397 1397 1396 1396 1396 1398 1401 1405 1410 1414 1418 1422 1426 1431 1435 1439 1444 1449 1455 1461 1467 1472 1476 1479 1481 1482 1483 1483 1482 1482
1460 1463 1467 1474 1468 1461 1455 1429 1405 1402 1400 1400 1399 1396 1394 1393 1393 1392 1392 1393 1393 1393 1393 1393 1395 1398 1402 1406 1411 1415 1419 1424 1428 1433 1438 1443 1448 1454 1460 1465 1470 1474 1476 1478 1479 1479 1479 1478 1477